owner,sensor,date,latitude,longitude,vertical_datum,mass_concentration_of_oxygen_in_sea_water,qcFlag 
DISL,ioos:station:DISL:PPTA:1,2019-11-01T00:30:00Z,30.2791,-87.5561,1.454,6.86,11111222 
DISL,ioos:station:DISL:PPTA:1,2019-11-01T01:30:00Z,30.2791,-87.5561,1.493,6.81,11111222 
DISL,ioos:station:DISL:PPTA:1,2019-11-01T02:30:00Z,30.2791,-87.5561,1.471,5.97,11111222 
DISL,ioos:station:DISL:PPTA:1,2019-11-01T03:30:00Z,30.2791,-87.5561,1.497,6.15,11111222 
DISL,ioos:station:DISL:PPTA:1,2019-11-01T04:30:00Z,30.2791,-87.5561,1.521,5.8,11111222 
DISL,ioos:station:DISL:PPTA:1,2019-11-01T05:30:00Z,30.2791,-87.5561,1.507,5.91,11111222 
DISL,ioos:station:DISL:PPTA:1,2019-11-01T06:30:00Z,30.2791,-87.5561,1.477,5.78,11111222 
DISL,ioos:station:DISL:PPTA:1,2019-11-01T07:30:00Z,30.2791,-87.5561,1.466,5.73,11111222 
DISL,ioos:station:DISL:PPTA:1,2019-11-01T08:30:00Z,30.2791,-87.5561,1.431,6.19,11111222 
DISL,ioos:station:DISL:PPTA:1,2019-11-01T09:30:00Z,30.2791,-87.5561,1.413,6.19,11111222 
DISL,ioos:station:DISL:PPTA:1,2019-11-01T10:30:00Z,30.2791,-87.5561,1.343,6.33,11111222 
DISL,ioos:station:DISL:PPTA:1,2019-11-01T11:30:00Z,30.2791,-87.5561,1.307,6.39,11111222 
DISL,ioos:station:DISL:PPTA:1,2019-11-01T12:30:00Z,30.2791,-87.5561,1.243,6.49,11111222 
DISL,ioos:station:DISL:PPTA:1,2019-11-01T13:30:00Z,30.2791,-87.5561,1.215,6.68,11111222 
DISL,ioos:station:DISL:PPTA:1,2019-11-01T14:30:00Z,30.2791,-87.5561,1.204,7.14,11111222 
DISL,ioos:station:DISL:PPTA:1,2019-11-01T15:30:00Z,30.2791,-87.5561,1.161,7.39,11111222 
DISL,ioos:station:DISL:PPTA:1,2019-11-01T16:30:00Z,30.2791,-87.5561,1.141,7.5,11111222 
DISL,ioos:station:DISL:PPTA:1,2019-11-01T17:30:00Z,30.2791,-87.5561,1.135,7.84,11111222 
DISL,ioos:station:DISL:PPTA:1,2019-11-01T18:30:00Z,30.2791,-87.5561,1.138,7.92,11111222 
DISL,ioos:station:DISL:PPTA:1,2019-11-01T19:30:00Z,30.2791,-87.5561,1.141,7.62,11111222 
DISL,ioos:station:DISL:PPTA:1,2019-11-01T20:30:00Z,30.2791,-87.5561,1.188,8.05,11111222 
DISL,ioos:station:DISL:PPTA:1,2019-11-01T21:30:00Z,30.2791,-87.5561,1.212,7.84,11111222 
DISL,ioos:station:DISL:PPTA:1,2019-11-01T22:30:00Z,30.2791,-87.5561,1.206,7.81,11111222 
DISL,ioos:station:DISL:PPTA:1,2019-11-01T23:30:00Z,30.2791,-87.5561,1.252,6.86,11111222 
DISL,ioos:station:DISL:PPTA:1,2019-11-02T00:30:00Z,30.2791,-87.5561,1.286,6.8,11111222 
DISL,ioos:station:DISL:PPTA:1,2019-11-02T01:30:00Z,30.2791,-87.5561,1.323,5.98,11111222 
DISL,ioos:station:DISL:PPTA:1,2019-11-02T02:30:00Z,30.2791,-87.5561,1.38,6.24,11111222 
DISL,ioos:station:DISL:PPTA:1,2019-11-02T03:30:00Z,30.2791,-87.5561,1.415,5.73,11111222 
DISL,ioos:station:DISL:PPTA:1,2019-11-02T04:30:00Z,30.2791,-87.5561,1.451,5.34,11111222 
DISL,ioos:station:DISL:PPTA:1,2019-11-02T05:30:00Z,30.2791,-87.5561,1.458,5.54,11111222 
DISL,ioos:station:DISL:PPTA:1,2019-11-02T06:30:00Z,30.2791,-87.5561,1.462,5.68,11111222 
DISL,ioos:station:DISL:PPTA:1,2019-11-02T07:30:00Z,30.2791,-87.5561,1.458,6.31,11111222 
DISL,ioos:station:DISL:PPTA:1,2019-11-02T08:30:00Z,30.2791,-87.5561,1.457,5.67,11111222 
DISL,ioos:station:DISL:PPTA:1,2019-11-02T09:30:00Z,30.2791,-87.5561,1.401,5.55,11111222 
DISL,ioos:station:DISL:PPTA:1,2019-11-02T10:30:00Z,30.2791,-87.5561,1.375,5.92,11111222 
DISL,ioos:station:DISL:PPTA:1,2019-11-02T11:30:00Z,30.2791,-87.5561,1.343,5.81,11111222 
DISL,ioos:station:DISL:PPTA:1,2019-11-02T12:30:00Z,30.2791,-87.5561,1.3,6.11,11111222 
DISL,ioos:station:DISL:PPTA:1,2019-11-02T13:30:00Z,30.2791,-87.5561,1.25,6.11,11111222 
DISL,ioos:station:DISL:PPTA:1,2019-11-02T14:30:00Z,30.2791,-87.5561,1.228,7.24,11111222 
DISL,ioos:station:DISL:PPTA:1,2019-11-02T15:30:00Z,30.2791,-87.5561,1.192,7.51,11111222 
DISL,ioos:station:DISL:PPTA:1,2019-11-02T16:30:00Z,30.2791,-87.5561,1.172,7.63,11111222 
DISL,ioos:station:DISL:PPTA:1,2019-11-02T17:30:00Z,30.2791,-87.5561,1.154,7.79,11111222 
DISL,ioos:station:DISL:PPTA:1,2019-11-02T18:30:00Z,30.2791,-87.5561,1.143,8.13,11111222 
DISL,ioos:station:DISL:PPTA:1,2019-11-02T19:30:00Z,30.2791,-87.5561,1.142,8.29,11111222 
DISL,ioos:station:DISL:PPTA:1,2019-11-02T20:30:00Z,30.2791,-87.5561,1.155,8.3,11111222 
DISL,ioos:station:DISL:PPTA:1,2019-11-02T21:30:00Z,30.2791,-87.5561,1.172,8.48,11111222 
DISL,ioos:station:DISL:PPTA:1,2019-11-02T22:30:00Z,30.2791,-87.5561,1.195,8.22,11111222 
DISL,ioos:station:DISL:PPTA:1,2019-11-02T23:30:00Z,30.2791,-87.5561,1.203,7.91,11111222 
DISL,ioos:station:DISL:PPTA:1,2019-11-03T00:30:00Z,30.2791,-87.5561,1.225,7.79,11111222 
DISL,ioos:station:DISL:PPTA:1,2019-11-03T01:30:00Z,30.2791,-87.5561,1.253,6.07,11111222 
DISL,ioos:station:DISL:PPTA:1,2019-11-03T02:30:00Z,30.2791,-87.5561,1.29,5.64,11111222 
DISL,ioos:station:DISL:PPTA:1,2019-11-03T03:30:00Z,30.2791,-87.5561,1.329,5.65,11111222 
DISL,ioos:station:DISL:PPTA:1,2019-11-03T04:30:00Z,30.2791,-87.5561,1.352,5.17,11111222 
DISL,ioos:station:DISL:PPTA:1,2019-11-03T05:30:00Z,30.2791,-87.5561,1.37,5.44,11111222 
DISL,ioos:station:DISL:PPTA:1,2019-11-03T06:30:00Z,30.2791,-87.5561,1.39,5.35,11111222 
DISL,ioos:station:DISL:PPTA:1,2019-11-03T08:30:00Z,30.2791,-87.5561,1.386,6.24,11111222 
DISL,ioos:station:DISL:PPTA:1,2019-11-03T09:30:00Z,30.2791,-87.5561,1.36,6.13,11111222 
DISL,ioos:station:DISL:PPTA:1,2019-11-03T10:30:00Z,30.2791,-87.5561,1.339,6.27,11111222 
DISL,ioos:station:DISL:PPTA:1,2019-11-03T11:30:00Z,30.2791,-87.5561,1.32,6.28,11111222 
DISL,ioos:station:DISL:PPTA:1,2019-11-03T12:30:00Z,30.2791,-87.5561,1.288,5.96,11111222 
DISL,ioos:station:DISL:PPTA:1,2019-11-03T13:30:00Z,30.2791,-87.5561,1.243,7.03,11111222 
DISL,ioos:station:DISL:PPTA:1,2019-11-03T14:30:00Z,30.2791,-87.5561,1.22,7.31,11111222 
DISL,ioos:station:DISL:PPTA:1,2019-11-03T15:30:00Z,30.2791,-87.5561,1.192,7.5,11111222 
DISL,ioos:station:DISL:PPTA:1,2019-11-03T16:30:00Z,30.2791,-87.5561,1.172,7.71,11111222 
DISL,ioos:station:DISL:PPTA:1,2019-11-03T17:30:00Z,30.2791,-87.5561,1.154,7.76,11111222 
DISL,ioos:station:DISL:PPTA:1,2019-11-03T18:30:00Z,30.2791,-87.5561,1.138,7.6,11111222 
DISL,ioos:station:DISL:PPTA:1,2019-11-03T19:30:00Z,30.2791,-87.5561,1.138,7.97,11111222 
DISL,ioos:station:DISL:PPTA:1,2019-11-03T20:30:00Z,30.2791,-87.5561,1.123,7.93,11111222 
DISL,ioos:station:DISL:PPTA:1,2019-11-03T21:30:00Z,30.2791,-87.5561,1.156,8.05,11111222 
DISL,ioos:station:DISL:PPTA:1,2019-11-03T22:30:00Z,30.2791,-87.5561,1.169,7.96,11111222 
DISL,ioos:station:DISL:PPTA:1,2019-11-03T23:30:00Z,30.2791,-87.5561,1.173,7.91,11111222 
DISL,ioos:station:DISL:PPTA:1,2019-11-04T00:30:00Z,30.2791,-87.5561,1.215,7.68,11111222 
DISL,ioos:station:DISL:PPTA:1,2019-11-04T01:30:00Z,30.2791,-87.5561,1.255,6.68,11111222 
DISL,ioos:station:DISL:PPTA:1,2019-11-04T02:30:00Z,30.2791,-87.5561,1.283,6.04,11111222 
DISL,ioos:station:DISL:PPTA:1,2019-11-04T03:30:00Z,30.2791,-87.5561,1.313,5.92,11111222 
DISL,ioos:station:DISL:PPTA:1,2019-11-04T04:30:00Z,30.2791,-87.5561,1.35,6.03,11111222 
DISL,ioos:station:DISL:PPTA:1,2019-11-04T05:30:00Z,30.2791,-87.5561,1.376,5.64,11111222 
DISL,ioos:station:DISL:PPTA:1,2019-11-04T16:30:00Z,30.2791,-87.5561,1.266,7.57,11111222 
DISL,ioos:station:DISL:PPTA:1,2019-11-04T17:30:00Z,30.2791,-87.5561,1.243,7.47,11111222 
DISL,ioos:station:DISL:PPTA:1,2019-11-04T18:30:00Z,30.2791,-87.5561,1.222,7.99,11111222 
DISL,ioos:station:DISL:PPTA:1,2019-11-04T19:30:00Z,30.2791,-87.5561,1.248,8.12,11111222 
DISL,ioos:station:DISL:PPTA:1,2019-11-04T20:30:00Z,30.2791,-87.5561,1.243,8.03,11111222 
DISL,ioos:station:DISL:PPTA:1,2019-11-04T21:30:00Z,30.2791,-87.5561,1.265,8.65,11111222 
DISL,ioos:station:DISL:PPTA:1,2019-11-04T22:30:00Z,30.2791,-87.5561,1.258,8.69,11111222 
DISL,ioos:station:DISL:PPTA:1,2019-11-04T23:30:00Z,30.2791,-87.5561,1.284,8.03,11111222 
DISL,ioos:station:DISL:PPTA:1,2019-11-05T00:30:00Z,30.2791,-87.5561,1.335,7.0,11111222 
DISL,ioos:station:DISL:PPTA:1,2019-11-05T01:30:00Z,30.2791,-87.5561,1.339,6.88,11111222 
DISL,ioos:station:DISL:PPTA:1,2019-11-05T02:30:00Z,30.2791,-87.5561,1.363,6.81,11111222 
DISL,ioos:station:DISL:PPTA:1,2019-11-05T03:30:00Z,30.2791,-87.5561,1.398,6.57,11111222 
DISL,ioos:station:DISL:PPTA:1,2019-11-05T04:30:00Z,30.2791,-87.5561,1.435,6.44,11111222 
DISL,ioos:station:DISL:PPTA:1,2019-11-05T05:30:00Z,30.2791,-87.5561,1.462,6.63,11111222 
DISL,ioos:station:DISL:PPTA:1,2019-11-05T06:30:00Z,30.2791,-87.5561,1.492,6.37,11111222 
DISL,ioos:station:DISL:PPTA:1,2019-11-05T07:00:00Z,30.2791,-87.5561,1.495,6.42,11111222 
DISL,ioos:station:DISL:PPTA:1,2019-11-05T08:00:00Z,30.2791,-87.5561,1.507,6.3,11111222 
DISL,ioos:station:DISL:PPTA:1,2019-11-05T09:30:00Z,30.2791,-87.5561,1.532,6.5,11111222 
DISL,ioos:station:DISL:PPTA:1,2019-11-05T12:30:00Z,30.2791,-87.5561,1.515,6.78,11111222 
DISL,ioos:station:DISL:PPTA:1,2019-11-05T13:30:00Z,30.2791,-87.5561,1.502,6.46,11111222 
DISL,ioos:station:DISL:PPTA:1,2019-11-05T14:30:00Z,30.2791,-87.5561,1.485,7.4,11111222 
DISL,ioos:station:DISL:PPTA:1,2019-11-05T16:00:00Z,30.2791,-87.5561,1.439,8.27,11111222 
DISL,ioos:station:DISL:PPTA:1,2019-11-05T17:30:00Z,30.2791,-87.5561,1.41,6.98,11111222 
DISL,ioos:station:DISL:PPTA:1,2019-11-05T18:30:00Z,30.2791,-87.5561,1.391,7.98,11111222 
DISL,ioos:station:DISL:PPTA:1,2019-11-05T19:30:00Z,30.2791,-87.5561,1.378,8.41,11111222 
DISL,ioos:station:DISL:PPTA:1,2019-11-05T20:00:00Z,30.2791,-87.5561,1.389,8.76,11111222 
DISL,ioos:station:DISL:PPTA:1,2019-11-05T21:30:00Z,30.2791,-87.5561,1.368,8.99,11111222 
DISL,ioos:station:DISL:PPTA:1,2019-11-05T22:30:00Z,30.2791,-87.5561,1.361,8.39,11111222 
DISL,ioos:station:DISL:PPTA:1,2019-11-05T23:30:00Z,30.2791,-87.5561,1.361,8.43,11111222 
DISL,ioos:station:DISL:PPTA:1,2019-11-06T00:30:00Z,30.2791,-87.5561,1.364,8.14,11111222 
DISL,ioos:station:DISL:PPTA:1,2019-11-06T01:30:00Z,30.2791,-87.5561,1.394,8.06,11111222 
DISL,ioos:station:DISL:PPTA:1,2019-11-06T02:30:00Z,30.2791,-87.5561,1.381,7.02,11111222 
DISL,ioos:station:DISL:PPTA:1,2019-11-06T03:00:00Z,30.2791,-87.5561,1.381,6.92,11111222 
DISL,ioos:station:DISL:PPTA:1,2019-11-06T04:30:00Z,30.2791,-87.5561,1.397,6.68,11111222 
DISL,ioos:station:DISL:PPTA:1,2019-11-06T06:30:00Z,30.2791,-87.5561,1.448,6.86,11111222 
DISL,ioos:station:DISL:PPTA:1,2019-11-06T07:30:00Z,30.2791,-87.5561,1.471,6.99,11111222 
DISL,ioos:station:DISL:PPTA:1,2019-11-06T08:30:00Z,30.2791,-87.5561,1.472,6.59,11111222 
DISL,ioos:station:DISL:PPTA:1,2019-11-06T09:30:00Z,30.2791,-87.5561,1.456,6.45,11111222 
DISL,ioos:station:DISL:PPTA:1,2019-11-06T10:30:00Z,30.2791,-87.5561,1.452,6.99,11111222 
DISL,ioos:station:DISL:PPTA:1,2019-11-06T11:30:00Z,30.2791,-87.5561,1.448,6.86,11111222 
DISL,ioos:station:DISL:PPTA:1,2019-11-06T12:30:00Z,30.2791,-87.5561,1.451,7.48,11111222 
DISL,ioos:station:DISL:PPTA:1,2019-11-06T13:30:00Z,30.2791,-87.5561,1.424,6.49,11111222 
DISL,ioos:station:DISL:PPTA:1,2019-11-06T14:30:00Z,30.2791,-87.5561,1.41,7.78,11111222 
DISL,ioos:station:DISL:PPTA:1,2019-11-06T15:30:00Z,30.2791,-87.5561,1.39,7.91,11111222 
DISL,ioos:station:DISL:PPTA:1,2019-11-06T16:30:00Z,30.2791,-87.5561,1.357,7.52,11111222 
DISL,ioos:station:DISL:PPTA:1,2019-11-06T17:30:00Z,30.2791,-87.5561,1.347,7.96,11111222 
DISL,ioos:station:DISL:PPTA:1,2019-11-06T18:30:00Z,30.2791,-87.5561,1.345,8.2,11111222 
DISL,ioos:station:DISL:PPTA:1,2019-11-06T19:30:00Z,30.2791,-87.5561,1.336,8.14,11111222 
DISL,ioos:station:DISL:PPTA:1,2019-11-06T20:30:00Z,30.2791,-87.5561,1.331,8.2,11111222 
DISL,ioos:station:DISL:PPTA:1,2019-11-06T21:30:00Z,30.2791,-87.5561,1.331,8.43,11111222 
DISL,ioos:station:DISL:PPTA:1,2019-11-06T22:30:00Z,30.2791,-87.5561,1.318,8.16,11111222 
DISL,ioos:station:DISL:PPTA:1,2019-11-06T23:30:00Z,30.2791,-87.5561,1.336,7.95,11111222 
DISL,ioos:station:DISL:PPTA:1,2019-11-07T00:30:00Z,30.2791,-87.5561,1.337,7.36,11111222 
DISL,ioos:station:DISL:PPTA:1,2019-11-07T01:30:00Z,30.2791,-87.5561,1.35,6.69,11111222 
DISL,ioos:station:DISL:PPTA:1,2019-11-07T02:30:00Z,30.2791,-87.5561,1.38,6.7,11111222 
DISL,ioos:station:DISL:PPTA:1,2019-11-07T03:30:00Z,30.2791,-87.5561,1.378,6.62,11111222 
DISL,ioos:station:DISL:PPTA:1,2019-11-07T04:30:00Z,30.2791,-87.5561,1.377,6.49,11111222 
DISL,ioos:station:DISL:PPTA:1,2019-11-07T05:30:00Z,30.2791,-87.5561,1.401,6.35,11111222 
DISL,ioos:station:DISL:PPTA:1,2019-11-07T06:30:00Z,30.2791,-87.5561,1.427,6.43,11111222 
DISL,ioos:station:DISL:PPTA:1,2019-11-07T07:30:00Z,30.2791,-87.5561,1.44,6.5,11111222 
DISL,ioos:station:DISL:PPTA:1,2019-11-07T08:30:00Z,30.2791,-87.5561,1.455,6.32,11111222 
DISL,ioos:station:DISL:PPTA:1,2019-11-07T09:30:00Z,30.2791,-87.5561,1.453,6.29,11111222 
DISL,ioos:station:DISL:PPTA:1,2019-11-07T10:30:00Z,30.2791,-87.5561,1.444,6.6,11111222 
DISL,ioos:station:DISL:PPTA:1,2019-11-07T11:00:00Z,30.2791,-87.5561,1.459,6.44,11111222 
DISL,ioos:station:DISL:PPTA:1,2019-11-07T15:30:00Z,30.2791,-87.5561,1.437,7.94,11111222 
DISL,ioos:station:DISL:PPTA:1,2019-11-07T16:30:00Z,30.2791,-87.5561,1.426,8.35,11111222 
DISL,ioos:station:DISL:PPTA:1,2019-11-07T17:30:00Z,30.2791,-87.5561,1.396,6.7,11111222 
DISL,ioos:station:DISL:PPTA:1,2019-11-07T18:30:00Z,30.2791,-87.5561,1.393,7.54,11111222 
DISL,ioos:station:DISL:PPTA:1,2019-11-07T19:30:00Z,30.2791,-87.5561,1.398,7.8,11111222 
DISL,ioos:station:DISL:PPTA:1,2019-11-07T20:30:00Z,30.2791,-87.5561,1.397,8.55,11111222 
DISL,ioos:station:DISL:PPTA:1,2019-11-07T21:30:00Z,30.2791,-87.5561,1.403,8.32,11111222 
DISL,ioos:station:DISL:PPTA:1,2019-11-07T22:30:00Z,30.2791,-87.5561,1.403,8.38,11111222 
DISL,ioos:station:DISL:PPTA:1,2019-11-07T23:30:00Z,30.2791,-87.5561,1.392,8.8,11111222 
DISL,ioos:station:DISL:PPTA:1,2019-11-08T00:30:00Z,30.2791,-87.5561,1.397,7.12,11111222 
DISL,ioos:station:DISL:PPTA:1,2019-11-08T01:30:00Z,30.2791,-87.5561,1.392,6.65,11111222 
DISL,ioos:station:DISL:PPTA:1,2019-11-08T02:30:00Z,30.2791,-87.5561,1.421,7.0,11111222 
DISL,ioos:station:DISL:PPTA:1,2019-11-08T03:30:00Z,30.2791,-87.5561,1.418,7.03,11111222 
DISL,ioos:station:DISL:PPTA:1,2019-11-08T04:30:00Z,30.2791,-87.5561,1.41,6.87,11111222 
DISL,ioos:station:DISL:PPTA:1,2019-11-08T05:30:00Z,30.2791,-87.5561,1.424,6.93,11111222 
DISL,ioos:station:DISL:PPTA:1,2019-11-08T06:30:00Z,30.2791,-87.5561,1.399,6.66,11111222 
DISL,ioos:station:DISL:PPTA:1,2019-11-08T07:30:00Z,30.2791,-87.5561,1.406,7.58,11111222 
DISL,ioos:station:DISL:PPTA:1,2019-11-08T08:30:00Z,30.2791,-87.5561,1.391,6.76,11111222 
DISL,ioos:station:DISL:PPTA:1,2019-11-08T09:30:00Z,30.2791,-87.5561,1.415,6.99,11111222 
DISL,ioos:station:DISL:PPTA:1,2019-11-08T10:30:00Z,30.2791,-87.5561,1.436,5.97,11111222 
DISL,ioos:station:DISL:PPTA:1,2019-11-08T11:30:00Z,30.2791,-87.5561,1.418,5.88,11111222 
DISL,ioos:station:DISL:PPTA:1,2019-11-08T12:30:00Z,30.2791,-87.5561,1.418,8.21,11111222 
DISL,ioos:station:DISL:PPTA:1,2019-11-08T13:30:00Z,30.2791,-87.5561,1.421,8.02,11111222 
DISL,ioos:station:DISL:PPTA:1,2019-11-08T14:30:00Z,30.2791,-87.5561,1.44,8.07,11111222 
DISL,ioos:station:DISL:PPTA:1,2019-11-08T15:30:00Z,30.2791,-87.5561,1.433,5.92,11111222 
DISL,ioos:station:DISL:PPTA:1,2019-11-08T16:30:00Z,30.2791,-87.5561,1.382,5.46,11111222 
DISL,ioos:station:DISL:PPTA:1,2019-11-08T17:30:00Z,30.2791,-87.5561,1.387,6.87,11111222 
DISL,ioos:station:DISL:PPTA:1,2019-11-08T18:30:00Z,30.2791,-87.5561,1.37,5.8,11111222 
DISL,ioos:station:DISL:PPTA:1,2019-11-08T19:30:00Z,30.2791,-87.5561,1.398,8.41,11111222 
DISL,ioos:station:DISL:PPTA:1,2019-11-08T20:30:00Z,30.2791,-87.5561,1.378,8.06,11111222 
DISL,ioos:station:DISL:PPTA:1,2019-11-08T21:30:00Z,30.2791,-87.5561,1.394,7.92,11111222 
DISL,ioos:station:DISL:PPTA:1,2019-11-08T22:30:00Z,30.2791,-87.5561,1.371,7.21,11111222 
DISL,ioos:station:DISL:PPTA:1,2019-11-08T23:30:00Z,30.2791,-87.5561,1.388,7.56,11111222 
DISL,ioos:station:DISL:PPTA:1,2019-11-09T00:30:00Z,30.2791,-87.5561,1.414,8.17,11111222 
DISL,ioos:station:DISL:PPTA:1,2019-11-09T01:30:00Z,30.2791,-87.5561,1.405,6.39,11111222 
DISL,ioos:station:DISL:PPTA:1,2019-11-09T02:30:00Z,30.2791,-87.5561,1.385,7.65,11111222 
DISL,ioos:station:DISL:PPTA:1,2019-11-09T03:30:00Z,30.2791,-87.5561,1.365,5.7,11111222 
DISL,ioos:station:DISL:PPTA:1,2019-11-09T04:30:00Z,30.2791,-87.5561,1.354,8.1,11111222 
DISL,ioos:station:DISL:PPTA:1,2019-11-09T05:30:00Z,30.2791,-87.5561,1.346,8.03,11111222 
DISL,ioos:station:DISL:PPTA:1,2019-11-09T06:30:00Z,30.2791,-87.5561,1.328,7.96,11111222 
DISL,ioos:station:DISL:PPTA:1,2019-11-09T07:30:00Z,30.2791,-87.5561,1.34,7.16,11111222 
DISL,ioos:station:DISL:PPTA:1,2019-11-09T08:30:00Z,30.2791,-87.5561,1.347,7.85,11111222 
DISL,ioos:station:DISL:PPTA:1,2019-11-09T09:30:00Z,30.2791,-87.5561,1.324,6.76,11111222 
DISL,ioos:station:DISL:PPTA:1,2019-11-09T10:30:00Z,30.2791,-87.5561,1.353,7.79,11111222 
DISL,ioos:station:DISL:PPTA:1,2019-11-09T11:30:00Z,30.2791,-87.5561,1.346,7.75,11111222 
DISL,ioos:station:DISL:PPTA:1,2019-11-09T12:30:00Z,30.2791,-87.5561,1.347,7.67,11111222 
DISL,ioos:station:DISL:PPTA:1,2019-11-09T13:30:00Z,30.2791,-87.5561,1.353,5.8,11111222 
DISL,ioos:station:DISL:PPTA:1,2019-11-09T14:30:00Z,30.2791,-87.5561,1.35,5.84,11111222 
DISL,ioos:station:DISL:PPTA:1,2019-11-09T15:30:00Z,30.2791,-87.5561,1.359,6.09,11111222 
DISL,ioos:station:DISL:PPTA:1,2019-11-09T16:30:00Z,30.2791,-87.5561,1.36,5.87,11111222 
DISL,ioos:station:DISL:PPTA:1,2019-11-09T17:30:00Z,30.2791,-87.5561,1.351,6.49,11111222 
DISL,ioos:station:DISL:PPTA:1,2019-11-09T18:30:00Z,30.2791,-87.5561,1.354,6.79,11111222 
DISL,ioos:station:DISL:PPTA:1,2019-11-09T19:30:00Z,30.2791,-87.5561,1.359,7.15,11111222 
DISL,ioos:station:DISL:PPTA:1,2019-11-09T20:30:00Z,30.2791,-87.5561,1.396,6.95,11111222 
DISL,ioos:station:DISL:PPTA:1,2019-11-09T21:30:00Z,30.2791,-87.5561,1.414,6.94,11111222 
DISL,ioos:station:DISL:PPTA:1,2019-11-09T22:30:00Z,30.2791,-87.5561,1.431,6.5,11111222 
DISL,ioos:station:DISL:PPTA:1,2019-11-09T23:30:00Z,30.2791,-87.5561,1.419,6.51,11111222 
DISL,ioos:station:DISL:PPTA:1,2019-11-10T00:30:00Z,30.2791,-87.5561,1.442,6.57,11111222 
DISL,ioos:station:DISL:PPTA:1,2019-11-10T01:30:00Z,30.2791,-87.5561,1.462,6.04,11111222 
DISL,ioos:station:DISL:PPTA:1,2019-11-10T02:30:00Z,30.2791,-87.5561,1.442,6.13,11111222 
DISL,ioos:station:DISL:PPTA:1,2019-11-10T03:30:00Z,30.2791,-87.5561,1.454,5.99,11111222 
DISL,ioos:station:DISL:PPTA:1,2019-11-10T04:30:00Z,30.2791,-87.5561,1.44,6.86,11111222 
DISL,ioos:station:DISL:PPTA:1,2019-11-10T05:30:00Z,30.2791,-87.5561,1.405,6.35,11111222 
DISL,ioos:station:DISL:PPTA:1,2019-11-10T06:30:00Z,30.2791,-87.5561,1.386,6.35,11111222 
DISL,ioos:station:DISL:PPTA:1,2019-11-10T07:30:00Z,30.2791,-87.5561,1.353,6.26,11111222 
DISL,ioos:station:DISL:PPTA:1,2019-11-10T08:30:00Z,30.2791,-87.5561,1.337,6.25,11111222 
DISL,ioos:station:DISL:PPTA:1,2019-11-10T09:30:00Z,30.2791,-87.5561,1.335,6.11,11111222 
DISL,ioos:station:DISL:PPTA:1,2019-11-10T10:30:00Z,30.2791,-87.5561,1.35,6.93,11111222 
DISL,ioos:station:DISL:PPTA:1,2019-11-10T11:30:00Z,30.2791,-87.5561,1.333,6.75,11111222 
DISL,ioos:station:DISL:PPTA:1,2019-11-10T12:30:00Z,30.2791,-87.5561,1.336,6.92,11111222 
DISL,ioos:station:DISL:PPTA:1,2019-11-10T13:30:00Z,30.2791,-87.5561,1.341,7.41,11111222 
DISL,ioos:station:DISL:PPTA:1,2019-11-10T14:30:00Z,30.2791,-87.5561,1.358,7.59,11111222 
DISL,ioos:station:DISL:PPTA:1,2019-11-10T15:30:00Z,30.2791,-87.5561,1.35,5.6,11111222 
DISL,ioos:station:DISL:PPTA:1,2019-11-10T16:30:00Z,30.2791,-87.5561,1.372,6.44,11111222 
DISL,ioos:station:DISL:PPTA:1,2019-11-10T17:30:00Z,30.2791,-87.5561,1.37,6.95,11111222 
DISL,ioos:station:DISL:PPTA:1,2019-11-10T18:30:00Z,30.2791,-87.5561,1.365,6.74,11111222 
DISL,ioos:station:DISL:PPTA:1,2019-11-10T19:30:00Z,30.2791,-87.5561,1.364,6.88,11111222 
DISL,ioos:station:DISL:PPTA:1,2019-11-10T20:30:00Z,30.2791,-87.5561,1.388,7.18,11111222 
DISL,ioos:station:DISL:PPTA:1,2019-11-10T21:30:00Z,30.2791,-87.5561,1.426,7.27,11111222 
DISL,ioos:station:DISL:PPTA:1,2019-11-10T22:30:00Z,30.2791,-87.5561,1.447,7.03,11111222 
DISL,ioos:station:DISL:PPTA:1,2019-11-10T23:30:00Z,30.2791,-87.5561,1.461,6.88,11111222 
DISL,ioos:station:DISL:PPTA:1,2019-11-11T00:30:00Z,30.2791,-87.5561,1.465,6.53,11111222 
DISL,ioos:station:DISL:PPTA:1,2019-11-11T01:30:00Z,30.2791,-87.5561,1.473,6.33,11111222 
DISL,ioos:station:DISL:PPTA:1,2019-11-11T02:30:00Z,30.2791,-87.5561,1.491,6.75,11111222 
DISL,ioos:station:DISL:PPTA:1,2019-11-11T03:30:00Z,30.2791,-87.5561,1.493,6.82,11111222 
DISL,ioos:station:DISL:PPTA:1,2019-11-11T04:30:00Z,30.2791,-87.5561,1.46,7.2,11111222 
DISL,ioos:station:DISL:PPTA:1,2019-11-11T05:30:00Z,30.2791,-87.5561,1.435,7.37,11111222 
DISL,ioos:station:DISL:PPTA:1,2019-11-11T06:30:00Z,30.2791,-87.5561,1.41,6.58,11111222 
DISL,ioos:station:DISL:PPTA:1,2019-11-11T07:30:00Z,30.2791,-87.5561,1.383,6.92,11111222 
DISL,ioos:station:DISL:PPTA:1,2019-11-11T08:30:00Z,30.2791,-87.5561,1.368,6.65,11111222 
DISL,ioos:station:DISL:PPTA:1,2019-11-11T09:00:00Z,30.2791,-87.5561,1.359,6.6,11111222 
DISL,ioos:station:DISL:PPTA:1,2019-11-11T10:30:00Z,30.2791,-87.5561,1.36,6.28,11111222 
DISL,ioos:station:DISL:PPTA:1,2019-11-11T11:30:00Z,30.2791,-87.5561,1.357,6.54,11111222 
DISL,ioos:station:DISL:PPTA:1,2019-11-11T12:30:00Z,30.2791,-87.5561,1.36,6.83,11111222 
DISL,ioos:station:DISL:PPTA:1,2019-11-11T13:30:00Z,30.2791,-87.5561,1.36,7.5,11111222 
DISL,ioos:station:DISL:PPTA:1,2019-11-11T14:30:00Z,30.2791,-87.5561,1.369,7.2,11111222 
DISL,ioos:station:DISL:PPTA:1,2019-11-11T15:30:00Z,30.2791,-87.5561,1.381,6.32,11111222 
DISL,ioos:station:DISL:PPTA:1,2019-11-11T16:30:00Z,30.2791,-87.5561,1.404,6.39,11111222 
DISL,ioos:station:DISL:PPTA:1,2019-11-11T17:30:00Z,30.2791,-87.5561,1.428,7.67,11111222 
DISL,ioos:station:DISL:PPTA:1,2019-11-11T18:30:00Z,30.2791,-87.5561,1.431,7.74,11111222 
DISL,ioos:station:DISL:PPTA:1,2019-11-11T19:30:00Z,30.2791,-87.5561,1.454,7.63,11111222 
DISL,ioos:station:DISL:PPTA:1,2019-11-11T20:30:00Z,30.2791,-87.5561,1.496,7.62,11111222 
DISL,ioos:station:DISL:PPTA:1,2019-11-11T21:30:00Z,30.2791,-87.5561,1.538,7.32,11111222 
DISL,ioos:station:DISL:PPTA:1,2019-11-11T22:30:00Z,30.2791,-87.5561,1.527,7.17,11111222 
DISL,ioos:station:DISL:PPTA:1,2019-11-11T23:30:00Z,30.2791,-87.5561,1.59,7.11,11111222 
DISL,ioos:station:DISL:PPTA:1,2019-11-12T00:30:00Z,30.2791,-87.5561,1.624,6.98,11111222 
DISL,ioos:station:DISL:PPTA:1,2019-11-12T01:30:00Z,30.2791,-87.5561,1.635,6.86,11111222 
DISL,ioos:station:DISL:PPTA:1,2019-11-12T02:30:00Z,30.2791,-87.5561,1.642,7.13,11111222 
DISL,ioos:station:DISL:PPTA:1,2019-11-12T03:30:00Z,30.2791,-87.5561,1.641,6.86,11111222 
DISL,ioos:station:DISL:PPTA:1,2019-11-12T04:30:00Z,30.2791,-87.5561,1.657,7.05,11111222 
DISL,ioos:station:DISL:PPTA:1,2019-11-12T05:30:00Z,30.2791,-87.5561,1.648,6.94,11111222 
DISL,ioos:station:DISL:PPTA:1,2019-11-12T06:30:00Z,30.2791,-87.5561,1.576,7.22,11111222 
DISL,ioos:station:DISL:PPTA:1,2019-11-12T07:30:00Z,30.2791,-87.5561,1.545,7.22,11111222 
DISL,ioos:station:DISL:PPTA:1,2019-11-12T08:30:00Z,30.2791,-87.5561,1.531,6.82,11111222 
DISL,ioos:station:DISL:PPTA:1,2019-11-12T09:30:00Z,30.2791,-87.5561,1.498,7.23,11111222 
DISL,ioos:station:DISL:PPTA:1,2019-11-12T10:30:00Z,30.2791,-87.5561,1.423,7.5,11111222 
DISL,ioos:station:DISL:PPTA:1,2019-11-12T11:30:00Z,30.2791,-87.5561,1.434,7.49,11111222 
DISL,ioos:station:DISL:PPTA:1,2019-11-12T12:30:00Z,30.2791,-87.5561,1.37,7.6,11111222 
DISL,ioos:station:DISL:PPTA:1,2019-11-12T13:30:00Z,30.2791,-87.5561,1.385,7.49,11111222 
DISL,ioos:station:DISL:PPTA:1,2019-11-12T14:30:00Z,30.2791,-87.5561,1.385,7.7,11111222 
DISL,ioos:station:DISL:PPTA:1,2019-11-12T15:30:00Z,30.2791,-87.5561,1.367,7.89,11111222 
DISL,ioos:station:DISL:PPTA:1,2019-11-12T16:30:00Z,30.2791,-87.5561,1.339,7.9,11111222 
DISL,ioos:station:DISL:PPTA:1,2019-11-12T17:30:00Z,30.2791,-87.5561,1.359,7.84,11111222 
DISL,ioos:station:DISL:PPTA:1,2019-11-12T18:30:00Z,30.2791,-87.5561,1.364,8.29,11111222 
DISL,ioos:station:DISL:PPTA:1,2019-11-12T19:30:00Z,30.2791,-87.5561,1.387,8.54,11111222 
DISL,ioos:station:DISL:PPTA:1,2019-11-12T20:30:00Z,30.2791,-87.5561,1.404,8.6,11111222 
DISL,ioos:station:DISL:PPTA:1,2019-11-12T21:30:00Z,30.2791,-87.5561,1.385,8.79,11111222 
DISL,ioos:station:DISL:PPTA:1,2019-11-12T22:30:00Z,30.2791,-87.5561,1.41,7.55,11111222 